Voltar ao catálogo

STARLINK-34009

AtivoComunicaçõesVLEO
NORAD 63849·PAYLOAD·🇺🇸 United States

Lançado May 7, 2025 de Cape Canaveral Space Force Station

Loading…

Próximas Passagens (próximas 24 horas)

TLE

AtualizadoSource: CelesTrak SupGP

Época: Sep 14, 2026, 21:03 UTC

1 63849C 25093P   26257.87756944  .00014691  00000+0  53222-3 0  2575
2 63849  42.9996  86.2396 0001296 271.7526  74.8124 15.27564867    11

Acompanhe STARLINK-34009 em tempo real com AllMySat

Download on the App Store